Flag for U.S.A. Weather past 2 weeks in Victorville, California, U.S.A.

Now
75 °F

Clear.


Feels Like: 77 °F
Forecast: 55 / 92 °F
Wind: 5 mph from Southwest

Location: George Air Force Base / Victorvi

Current Time: Sep 22, 2014 at 10:10:32 PM

Latest Report: Sep 22, 2014 at 9:15 PM


Visibility: 10 mi

Pressure: 30.03 "Hg

Humidity: 25%

Dew point: 37 °F

Location of VictorvilleLocation

Historic Weather in Victorville — Graph

°F

Victorville temperature yesterday

Maximum temperature yesterday: 90 °F (at 3:15 PM)
Minimum temperature yesterday: 59 °F (at 6:15 AM)
Average temperature yesterday: 73 °F

Past Weeks' High & Low Weather Summary

 TemperatureHumidityPressure
High100 °F (Sep 15, 3:15 PM)88% (Sep 19, 6:55 AM)30.09 "Hg (Sep 19, 6:55 AM)
Low57 °F (Sep 19, 6:55 AM)5% (Sep 9, 5:15 PM)29.80 "Hg (Sep 17, 5:15 PM)
Average79 °F37%29.95 "Hg
* Reported Sep 7 8:15 PM — Sep 22 8:55 PM, Victorville, Weather by CustomWeather, © 2014

Note: Actual official high and low records may vary slightly from our data, if they occured in-between our weather recording intervals... More about our weather records

Advertising

Victorville weather history for previous 24 hours

 ConditionsComfort  
Time TempWeatherWind HumidityBarometerVisibility
8:55 PM
Sep 22
77 °FClear.7 mph24%30.03 "Hg10 mi
8:15 PM79 °FClear.6 mph20%30.02 "Hg10 mi
7:55 PM79 °FClear.12 mph21%30.00 "Hg10 mi
7:35 PM81 °FSunny.13 mph16%30.00 "Hg10 mi
7:15 PM81 °FSunny.15 mph17%29.99 "Hg10 mi
6:55 PM82 °FSunny.14 mph17%29.99 "Hg10 mi
6:35 PM84 °FSunny.15 mph16%29.99 "Hg10 mi
6:15 PM88 °FSunny.14 mph15%29.98 "Hg10 mi
5:55 PM88 °FSunny.14 mph13%29.98 "Hg10 mi
5:35 PM90 °FSunny.12 mph12%29.98 "Hg10 mi
5:15 PM91 °FSunny.13 mph11%29.98 "Hg10 mi
4:55 PM91 °FSunny.10 mph10%29.98 "Hg10 mi
4:35 PM91 °FSunny.9 mph10%29.98 "Hg10 mi
4:15 PM91 °FSunny.10 mph10%29.98 "Hg10 mi
3:55 PM91 °FSunny.3 mph9%29.99 "Hg10 mi
3:35 PM91 °FSunny.No wind10%29.99 "Hg10 mi
3:15 PM91 °FSunny.8 mph11%30.00 "Hg10 mi
2:55 PM91 °FSunny.6 mph11%30.00 "Hg10 mi
2:15 PM90 °FSunny.8 mph14%30.02 "Hg10 mi
1:55 PM90 °FSunny.No wind14%30.02 "Hg10 mi
1:35 PM90 °FSunny.No wind14%30.03 "Hg10 mi
1:15 PM88 °FSunny.No wind15%30.04 "Hg10 mi
12:55 PM88 °FSunny.6 mph16%30.05 "Hg10 mi
12:35 PM88 °FSunny.5 mph16%30.06 "Hg10 mi
12:15 PM86 °FSunny.3 mph15%30.07 "Hg10 mi
11:55 AM84 °FSunny.3 mph18%30.07 "Hg10 mi
11:35 AM82 °FSunny.No wind21%30.08 "Hg10 mi
11:15 AM82 °FSunny.No wind23%30.08 "Hg10 mi
10:55 AM81 °FSunny.No wind26%30.08 "Hg10 mi
10:15 AM79 °FSunny.No wind30%30.09 "Hg10 mi
9:55 AM75 °FSunny.No wind34%30.09 "Hg10 mi
9:35 AM73 °FSunny.No wind33%30.09 "Hg10 mi
9:15 AM73 °FSunny.3 mph33%30.09 "Hg10 mi
8:55 AM72 °FSunny.5 mph31%30.09 "Hg10 mi
8:35 AM70 °FSunny.5 mph33%30.08 "Hg10 mi
8:15 AM66 °FSunny.5 mph37%30.08 "Hg10 mi
7:55 AM64 °FSunny.3 mph46%30.07 "Hg10 mi
7:35 AM61 °FClear.5 mph52%30.07 "Hg10 mi
7:15 AM57 °FClear.5 mph59%30.07 "Hg7 mi
6:55 AM57 °FClear.3 mph59%30.07 "Hg10 mi
6:35 AM61 °FClear.3 mph52%30.06 "Hg10 mi
6:15 AM57 °FClear.5 mph59%30.06 "Hg10 mi
5:55 AM57 °FClear.5 mph59%30.05 "Hg10 mi
5:35 AM61 °FClear.6 mph52%30.05 "Hg10 mi
5:15 AM61 °FClear.5 mph52%30.05 "Hg10 mi
4:55 AM59 °FClear.5 mph55%30.04 "Hg10 mi
4:35 AM61 °FClear.5 mph52%30.04 "Hg10 mi
4:15 AM64 °FClear.7 mph46%30.04 "Hg10 mi
3:55 AM63 °FClear.6 mph49%30.04 "Hg10 mi
3:35 AM64 °FClear.7 mph49%30.04 "Hg10 mi
3:15 AM64 °FClear.6 mph49%30.04 "Hg10 mi
2:55 AM64 °FClear.8 mph52%30.04 "Hg10 mi
2:35 AM64 °FClear.7 mph52%30.04 "Hg10 mi
2:15 AM66 °FClear.7 mph49%30.05 "Hg10 mi
1:55 AM64 °FClear.6 mph52%30.05 "Hg10 mi
1:35 AM66 °FClear.8 mph46%30.05 "Hg10 mi
1:15 AM66 °FClear.7 mph46%30.05 "Hg10 mi
12:55 AM66 °FClear.7 mph46%30.05 "Hg10 mi
12:35 AM68 °FClear.6 mph43%30.05 "Hg10 mi
12:15 AM66 °FClear.6 mph46%30.04 "Hg10 mi
11:55 PM
Sep 21
68 °FClear.5 mph43%30.04 "Hg10 mi
11:35 PM66 °FClear.3 mph46%30.04 "Hg10 mi
11:15 PM66 °FClear.5 mph46%30.04 "Hg10 mi
10:55 PM68 °FClear.3 mph43%30.04 "Hg10 mi
10:35 PM68 °FClear.3 mph43%30.04 "Hg10 mi
10:15 PM70 °FClear.No wind40%30.03 "Hg10 mi
Weather by CustomWeather, © 2014

See weather overviewHow to use our weather pages